Winchcombe, United Kingdom

8:41 PM GMT on December 03, 2016 (GMT +0000)
Staverton

Weather History for EGBJ - November, 2012

Change the Weather History Date:

Tuesday, November 6, 2012

  Actual Average Record
Temperature  
Mean Temperature 42 °F -  
Max Temperature 50 °F 52 °F 62 °F (2015)
Min Temperature 33 °F 45 °F 33 °F (2012)
Degree Days  
Heating Degree Days 24    
Moisture  
Dew Point 41 °F    
Average Humidity 82    
Maximum Humidity 93    
Minimum Humidity 71    
Precipitation  
Precipitation 0.00 in - - ()
Sea Level Pressure  
Sea Level Pressure 30.15 in    
Wind  
Wind Speed 4 mph ()    
Max Wind Speed 10 mph    
Max Gust Speed -    
Visibility 6.2 miles    
Events Rain    
Averages and records for this station are not official NWS values.
T = Trace of Precipitation, MM = Missing Value Source: Averaged Metar Reports

Daily Weather History Graph

Daily Weather History Graph

Search for Another Location

Airport or City:

Trip Planner

Search our weather history database for the weather conditions in past years. The results will help you decide how hot, cold, wet, or windy it might be!

Date:

Astronomy

Nov. 06, 2012 Rise Set
Actual Time 7:12 AM GMT 4:31 PM GMT
Civil Twilight 6:36 AM GMT 5:07 PM GMT
Nautical Twilight 5:56 AM GMT 5:47 PM GMT
Astronomical Twilight 5:16 AM GMT 6:26 PM GMT
Moon 11:02 PM GMT (11/6) 12:52 PM GMT (11/6)
Length of Visible Light 10h 30m
Length of Day
9h 18m
Waning Gibbous, 55% of the Moon is Illuminated
Nov 6
Waning Gibbous
Nov 7
Last Quarter
Nov 13
New
Nov 20
First Quarter
Nov 28
Full

Hourly Weather History & Observations

Time (GMT) Temp. Windchill Dew Point Humidity Pressure Visibility Wind Dir Wind Speed Gust Speed Precip Events Conditions
6:50 AM 33.8 °F - 30.2 °F 87% 30.12 in - Calm Calm - N/A   Clear
7:20 AM 33.8 °F - 32.0 °F 93% 30.12 in - Calm Calm - N/A   Clear
7:50 AM 35.6 °F - 32.0 °F 87% 30.15 in - Calm Calm - N/A   Clear
8:20 AM 35.6 °F - 33.8 °F 93% 30.15 in - Calm Calm - N/A   Clear
8:50 AM 37.4 °F 33.8 °F 35.6 °F 93% 30.15 in - SW 4.6 mph - N/A   Clear
9:50 AM 44.6 °F 40.7 °F 39.2 °F 81% 30.15 in - SW 6.9 mph - N/A   Clear
10:20 AM 46.4 °F 42.4 °F 41.0 °F 81% 30.15 in 6.2 mi SW 8.1 mph - N/A   Partly Cloudy
10:50 AM 48.2 °F - 41.0 °F 76% 30.15 in 6.2 mi SW 9.2 mph - N/A   Partly Cloudy
11:20 AM 48.2 °F - 41.0 °F 76% 30.15 in 6.2 mi SW 10.4 mph - N/A   Partly Cloudy
11:50 AM 50.0 °F - 41.0 °F 71% 30.15 in 6.2 mi SW 10.4 mph - N/A   Partly Cloudy
12:20 PM 50.0 °F - 41.0 °F 71% 30.15 in 6.2 mi WSW 9.2 mph - N/A   Scattered Clouds
12:50 PM 50.0 °F - 42.8 °F 76% 30.15 in 6.2 mi WSW 8.1 mph - N/A   Mostly Cloudy
1:20 PM 50.0 °F - 42.8 °F 76% 30.15 in 6.2 mi SW 8.1 mph - N/A Rain Light Rain
1:50 PM 50.0 °F - 44.6 °F 82% 30.15 in 6.2 mi SW 6.9 mph - N/A Rain Light Rain
2:20 PM 50.0 °F - 44.6 °F 82% 30.15 in 6.2 mi SW 6.9 mph - N/A Rain Light Rain
2:50 PM 50.0 °F - 44.6 °F 82% 30.15 in 6.2 mi WSW 5.8 mph - N/A   Mostly Cloudy
3:20 PM 50.0 °F - 44.6 °F 82% 30.15 in 6.2 mi SW 5.8 mph - N/A   Mostly Cloudy
3:50 PM 50.0 °F - 44.6 °F 82% 30.15 in 6.2 mi WSW 4.6 mph - N/A Rain Light Rain
4:20 PM 50.0 °F - 44.6 °F 82% 30.15 in 6.2 mi WSW 4.6 mph - N/A Rain Light Rain
4:50 PM 48.2 °F - 44.6 °F 87% 30.15 in 6.2 mi SW 3.5 mph - N/A Rain Light Rain
5:20 PM 48.2 °F - 44.6 °F 87% 30.18 in 6.2 mi WSW 4.6 mph - N/A Rain Light Rain
5:50 PM 48.2 °F - 44.6 °F 87% 30.18 in 6.2 mi WSW 3.5 mph - N/A   Mostly Cloudy
6:20 PM 48.2 °F - 44.6 °F 87% 30.18 in 6.2 mi West 4.6 mph - N/A   Mostly Cloudy
6:50 PM 50.0 °F - 42.8 °F 76% 30.18 in 6.2 mi WSW 4.6 mph - N/A   Mostly Cloudy